K7KAZ Weather Reports


Display with metric or nautical units.
time (UTC)temp
F
wind
direction
speed
MPH
gust
MPH
rain 1hr
in
rain 24hr
in
rain mn
in
humidity
%
barometer
mb
20260507040717 76 298 1.0 2.0 0.00 0.00 0.00 26 1016.7
20260507040213 76 332 0.0 2.0 0.00 0.00 0.00 26 1016.3
20260507035710 76 332 0.0 1.0 0.00 0.00 0.00 26 1016.5
20260507035205 77 329 0.0 3.0 0.00 0.00 0.00 26 1016.2
20260507034702 77 265 3.0 5.0 0.00 0.00 0.00 26 1016.4
20260507034200 77 296 2.0 3.0 0.00 0.00 0.00 26 1016.3
20260507033658 77 287 2.0 3.0 0.00 0.00 0.00 26 1016.4
20260507033155 77 286 2.0 3.0 0.00 0.00 0.00 26 1016.0
20260507032653 77 311 0.0 3.0 0.00 0.00 0.00 25 1016.2
20260507032148 77 243 1.0 3.0 0.00 0.00 0.00 25 1016.1
20260507031645 78 269 1.0 3.0 0.00 0.00 0.00 25 1016.0
20260507031142 78 256 3.0 3.0 0.00 0.00 0.00 25 1015.8
20260507030639 78 262 2.0 6.0 0.00 0.00 0.00 25 1015.7
20260507030137 78 238 3.0 5.0 0.00 0.00 0.00 25 1015.5
20260507025634 78 277 1.0 4.0 0.00 0.00 0.00 25 1015.5
20260507025130 78 279 3.0 7.0 0.00 0.00 0.00 25 1015.5
20260507024628 78 246 4.0 7.0 0.00 0.00 0.00 25 1015.2
20260507024125 79 266 3.0 5.0 0.00 0.00 0.00 25 1015.5
20260507023621 79 264 8.0 8.0 0.00 0.00 0.00 25 1015.1
20260507023119 79 287 4.0 6.0 0.00 0.00 0.00 25 1015.3
20260507022615 79 234 4.0 6.0 0.00 0.00 0.00 25 1015.2
20260507022110 79 235 3.0 7.0 0.00 0.00 0.00 25 1015.0
20260507021607 79 275 2.0 5.0 0.00 0.00 0.00 25 1015.2
20260507021103 80 235 2.0 8.0 0.00 0.00 0.00 24 1015.1
20260507020602 80 167 3.0 6.0 0.00 0.00 0.00 24 1015.6
20260507020057 80 231 4.0 9.0 0.00 0.00 0.00 24 1015.0
20260507015556 80 257 4.0 7.0 0.00 0.00 0.00 24 1015.1
20260507015053 80 357 2.0 7.0 0.00 0.00 0.00 24 1014.8
20260507014550 81 262 5.0 5.0 0.00 0.00 0.00 23 1015.0
20260507014045 81 267 2.0 5.0 0.00 0.00 0.00 23 1015.1
20260507013542 81 293 3.0 8.0 0.00 0.00 0.00 23 1014.8
20260507013039 81 270 2.0 7.0 0.00 0.00 0.00 23 1015.0
20260507012537 81 236 5.0 7.0 0.00 0.00 0.00 23 1014.8
20260507012032 81 281 6.0 11.0 0.00 0.00 0.00 23 1014.9
20260507011530 81 253 4.0 9.0 0.00 0.00 0.00 24 1014.8
20260507011026 82 268 5.0 6.0 0.00 0.00 0.00 23 1014.9
20260507010521 81 263 9.0 11.0 0.00 0.00 0.00 23 1015.1
20260507010017 81 213 2.0 10.0 0.00 0.00 0.00 24 1015.0
20260507005515 82 254 6.0 13.0 0.00 0.00 0.00 23 1014.9
20260507005011 82 290 6.0 6.0 0.00 0.00 0.00 23 1014.9
20260507004508 82 262 7.0 9.0 0.00 0.00 0.00 23 1014.8
20260507004006 82 281 7.0 10.0 0.00 0.00 0.00 23 1015.1
20260507003501 82 262 1.0 5.0 0.00 0.00 0.00 23 1015.0
20260507002955 82 260 5.0 14.0 0.00 0.00 0.00 23 1015.0
20260507002453 82 272 6.0 12.0 0.00 0.00 0.00 23 1014.9
20260507001950 82 253 1.0 3.0 0.00 0.00 0.00 23 1014.9
20260507001446 81 217 2.0 7.0 0.00 0.00 0.00 23 1014.7
20260507000944 82 179 0.0 5.0 0.00 0.00 0.00 23 1014.8
20260507000439 82 249 6.0 9.0 0.00 0.00 0.00 23 1014.7
20260506235935 81 269 9.0 13.0 0.00 0.00 0.00 23 1014.9
20260506235432 82 269 11.0 12.0 0.00 0.00 0.00 23 1014.7
20260506234927 83 270 6.0 6.0 0.00 0.00 0.00 23 1014.9
20260506234426 81 286 2.0 7.0 0.00 0.00 0.00 23 1014.7
20260506233923 82 257 8.0 11.0 0.00 0.00 0.00 23 1014.7
20260506233420 83 280 6.0 7.0 0.00 0.00 0.00 22 1015.0
20260506232916 82 293 3.0 5.0 0.00 0.00 0.00 23 1015.0
20260506232413 81 222 6.0 9.0 0.00 0.00 0.00 23 1014.9
20260506231908 82 274 5.0 10.0 0.00 0.00 0.00 23 1015.1
20260506231406 82 221 3.0 7.0 0.00 0.00 0.00 23 1015.2
20260506230903 81 305 6.0 12.0 0.00 0.00 0.00 23 1015.1
20260506230400 80 289 2.0 10.0 0.00 0.00 0.00 23 1015.2
20260506225856 80 93 5.0 9.0 0.00 0.00 0.00 23 1015.3
20260506225353 81 333 6.0 9.0 0.00 0.00 0.00 23 1015.1
20260506224850 82 283 7.0 10.0 0.00 0.00 0.00 23 1015.3
20260506224348 81 3 4.0 6.0 0.00 0.00 0.00 23 1015.5
20260506223844 81 230 6.0 10.0 0.00 0.00 0.00 23 1015.3
20260506223339 81 251 7.0 17.0 0.00 0.00 0.00 23 1015.6
20260506222836 81 268 8.0 15.0 0.00 0.00 0.00 23 1015.6
20260506222332 80 346 8.0 12.0 0.00 0.00 0.00 24 1015.7
20260506221830 82 317 14.0 14.0 0.00 0.00 0.00 23 1015.8
20260506221327 82 287 2.0 5.0 0.00 0.00 0.00 23 1015.8
20260506220825 80 173 8.0 13.0 0.00 0.00 0.00 24 1015.8
20260506220320 81 333 2.0 9.0 0.00 0.00 0.00 24 1016.0
20260506215817 80 222 3.0 8.0 0.00 0.00 0.00 24 1016.0
20260506215313 80 115 2.0 9.0 0.00 0.00 0.00 24 1016.0
20260506214809 80 262 2.0 7.0 0.00 0.00 0.00 24 1016.2
20260506214306 79 157 8.0 11.0 0.00 0.00 0.00 24 1016.2
20260506213804 80 160 2.0 6.0 0.00 0.00 0.00 24 1016.2
20260506213300 80 140 3.0 7.0 0.00 0.00 0.00 24 1016.4
20260506212758 80 306 5.0 8.0 0.00 0.00 0.00 24 1016.7
20260506212254 79 313 7.0 13.0 0.00 0.00 0.00 25 1016.3
20260506211749 80 142 4.0 6.0 0.00 0.00 0.00 24 1016.6
20260506211246 80 39 3.0 5.0 0.00 0.00 0.00 24 1016.9
20260506210743 78 317 6.0 9.0 0.00 0.00 0.00 25 1016.9
20260506210239 78 316 4.0 9.0 0.00 0.00 0.00 25 1017.0
20260506205736 78 258 10.0 12.0 0.00 0.00 0.00 25 1016.9
20260506205232 79 184 7.0 8.0 0.00 0.00 0.00 25 1017.1
20260506204729 77 101 0.0 7.0 0.00 0.00 0.00 26 1017.2
20260506204226 77 316 4.0 20.0 0.00 0.00 0.00 26 1017.2
20260506203725 79 340 2.0 4.0 0.00 0.00 0.00 25 1017.2
20260506203221 77 166 3.0 7.0 0.00 0.00 0.00 26 1017.4
20260506202719 79 185 5.0 8.0 0.00 0.00 0.00 25 1017.4
20260506202215 78 223 8.0 8.0 0.00 0.00 0.00 26 1017.5
20260506201712 78 278 6.0 11.0 0.00 0.00 0.00 26 1017.5
20260506201209 77 328 5.0 13.0 0.00 0.00 0.00 26 1017.3
20260506200706 76 4 4.0 9.0 0.00 0.00 0.00 26 1017.5
20260506200203 78 307 0.0 7.0 0.00 0.00 0.00 26 1017.7
20260506195659 78 181 7.0 7.0 0.00 0.00 0.00 25 1018.0
20260506195155 78 240 5.0 9.0 0.00 0.00 0.00 26 1017.6
20260506194653 75 9 4.0 9.0 0.00 0.00 0.00 27 1017.7
20260506194149 75 285 5.0 10.0 0.00 0.00 0.00 27 1017.9
20260506193647 76 267 8.0 12.0 0.00 0.00 0.00 27 1018.0
20260506193144 76 270 7.0 10.0 0.00 0.00 0.00 27 1017.9
20260506192640 75 11 4.0 7.0 0.00 0.00 0.00 27 1017.6
20260506192136 75 170 3.0 10.0 0.00 0.00 0.00 27 1018.1
20260506191634 76 245 7.0 12.0 0.00 0.00 0.00 26 1018.0
20260506191130 75 288 4.0 6.0 0.00 0.00 0.00 27 1018.2
20260506190627 75 229 3.0 7.0 0.00 0.00 0.00 28 1018.3
20260506190124 74 53 2.0 5.0 0.00 0.00 0.00 28 1018.2
20260506185621 75 311 9.0 10.0 0.00 0.00 0.00 28 1018.3
20260506185117 75 230 5.0 9.0 0.00 0.00 0.00 27 1018.3
20260506184614 75 9 6.0 13.0 0.00 0.00 0.00 28 1018.3
20260506184112 74 300 7.0 16.0 0.00 0.00 0.00 28 1018.3
20260506183608 75 267 7.0 7.0 0.00 0.00 0.00 28 1018.5
20260506183104 75 307 0.0 5.0 0.00 0.00 0.00 29 1018.4
20260506182602 75 119 2.0 9.0 0.00 0.00 0.00 29 1018.9
20260506182059 74 29 7.0 11.0 0.00 0.00 0.00 30 1018.8
20260506181557 73 267 5.0 10.0 0.00 0.00 0.00 29 1018.7
20260506181053 74 272 9.0 13.0 0.00 0.00 0.00 30 1018.9
20260506180550 74 301 7.0 11.0 0.00 0.00 0.00 30 1018.8
20260506180047 74 299 10.0 11.0 0.00 0.00 0.00 30 1018.8
20260506175543 73 288 7.0 10.0 0.00 0.00 0.00 31 1019.0
20260506175039 73 264 5.0 9.0 0.00 0.00 0.00 30 1018.8
20260506174538 74 188 3.0 12.0 0.00 0.00 0.00 30 1018.9
20260506174034 73 242 2.0 8.0 0.00 0.00 0.00 32 1019.2
20260506173532 73 262 2.0 6.0 0.00 0.00 0.00 32 1018.7
20260506173028 72 39 3.0 4.0 0.00 0.00 0.00 32 1018.9
20260506172526 71 333 5.0 8.0 0.00 0.00 0.00 33 1019.1
20260506172022 72 273 5.0 11.0 0.00 0.00 0.00 32 1018.9
20260506171519 72 322 2.0 11.0 0.00 0.00 0.00 33 1019.1
20260506171017 71 288 4.0 9.0 0.00 0.00 0.00 34 1018.8
20260506170514 71 294 6.0 13.0 0.00 0.00 0.00 33 1018.9
20260506170006 71 273 4.0 11.0 0.00 0.00 0.00 34 1019.2
20260506165504 72 169 3.0 4.0 0.00 0.00 0.00 33 1019.0
20260506165000 70 205 3.0 8.0 0.00 0.00 0.00 35 1018.6
20260506164457 71 276 5.0 6.0 0.00 0.00 0.00 34 1019.0
20260506163955 71 256 1.0 4.0 0.00 0.00 0.00 33 1018.8
20260506163449 71 319 7.0 9.0 0.00 0.00 0.00 34 1018.9
20260506162944 70 142 3.0 7.0 0.00 0.00 0.00 34 1018.8
20260506162442 69 202 3.0 6.0 0.00 0.00 0.00 35 1018.8
20260506161934 71 58 1.0 3.0 0.00 0.00 0.00 34 1018.8
20260506161432 69 277 0.0 3.0 0.00 0.00 0.00 36 1018.7
20260506160929 69 260 6.0 8.0 0.00 0.00 0.00 35 1018.6
20260506160426 69 175 0.0 7.0 0.00 0.00 0.00 35 1018.8
20260506155923 68 104 3.0 8.0 0.00 0.00 0.00 36 1018.7
20260506155420 68 169 2.0 5.0 0.00 0.00 0.00 36 1018.6
20260506153543 68 204 2.0 5.0 0.00 0.00 0.00 37 1018.8
20260506153040 68 82 0.0 3.0 0.00 0.00 0.00 36 1018.7
20260506152537 68 223 2.0 3.0 0.00 0.00 0.00 37 1018.8
20260506152035 66 190 1.0 3.0 0.00 0.00 0.00 38 1018.8
20260506151532 67 326 0.0 3.0 0.00 0.00 0.00 38 1018.7
20260506151024 66 144 0.0 5.0 0.00 0.00 0.00 38 1018.9
20260506150520 67 185 3.0 5.0 0.00 0.00 0.00 38 1018.8
20260506150017 67 72 2.0 3.0 0.00 0.00 0.00 38 1018.8
20260506145514 66 106 2.0 2.0 0.00 0.00 0.00 39 1018.8
20260506145011 65 262 0.0 4.0 0.00 0.00 0.00 40 1018.8
20260506144508 64 262 1.0 3.0 0.00 0.00 0.00 40 1018.7
20260506144005 64 299 3.0 5.0 0.00 0.00 0.00 41 1018.9
20260506143502 64 278 3.0 4.0 0.00 0.00 0.00 40 1018.9
20260506143001 64 272 2.0 3.0 0.00 0.00 0.00 41 1018.6
20260506142458 64 352 0.0 2.0 0.00 0.00 0.00 41 1018.5
20260506141956 64 334 3.0 4.0 0.00 0.00 0.00 41 1018.8
20260506141454 65 28 2.0 2.0 0.00 0.00 0.00 41 1018.6
20260506140952 65 352 3.0 4.0 0.00 0.00 0.00 40 1018.6
20260506140449 67 25 3.0 4.0 0.00 0.00 0.00 40 1018.5
20260506135945 65 34 3.0 4.0 0.00 0.00 0.00 42 1018.5
20260506135443 66 52 3.0 3.0 0.00 0.00 0.00 41 1018.3
20260506134938 65 13 2.0 2.0 0.00 0.00 0.00 43 1018.1
20260506134435 64 41 2.0 2.0 0.00 0.00 0.00 44 1018.2
20260506133932 64 37 3.0 3.0 0.00 0.00 0.00 44 1018.0
20260506133429 63 22 2.0 3.0 0.00 0.00 0.00 45 1017.9
20260506132926 62 63 3.0 3.0 0.00 0.00 0.00 46 1017.9
20260506132423 60 57 2.0 4.0 0.00 0.00 0.00 48 1017.7
20260506131920 60 61 3.0 5.0 0.00 0.00 0.00 48 1017.9
20260506131417 59 51 4.0 5.0 0.00 0.00 0.00 48 1017.7
20260506130914 58 33 4.0 5.0 0.00 0.00 0.00 50 1017.7
20260506130410 58 43 4.0 4.0 0.00 0.00 0.00 50 1017.9
20260506125908 59 27 3.0 4.0 0.00 0.00 0.00 49 1017.6
20260506125406 57 21 3.0 4.0 0.00 0.00 0.00 51 1017.2
20260506124904 57 16 3.0 4.0 0.00 0.00 0.00 53 1017.3
20260506124401 57 22 4.0 4.0 0.00 0.00 0.00 52 1017.2
20260506123859 57 14 2.0 3.0 0.00 0.00 0.00 52 1017.3
20260506123357 57 6 2.0 2.0 0.00 0.00 0.00 52 1017.1
20260506122854 57 352 0.0 2.0 0.00 0.00 0.00 51 1017.1
20260506122350 58 345 1.0 2.0 0.00 0.00 0.00 50 1016.9
20260506121849 58 352 0.0 1.0 0.00 0.00 0.00 49 1017.1
20260506121346 59 101 2.0 3.0 0.00 0.00 0.00 48 1017.0
20260506120843 58 78 3.0 3.0 0.00 0.00 0.00 49 1017.1
20260506120340 58 46 3.0 4.0 0.00 0.00 0.00 50 1016.9
20260506115837 57 39 3.0 4.0 0.00 0.00 0.00 51 1016.8
20260506115336 58 82 1.0 2.0 0.00 0.00 0.00 49 1017.1
20260506114834 57 61 1.0 2.0 0.00 0.00 0.00 50 1016.7
20260506114331 58 94 2.0 3.0 0.00 0.00 0.00 48 1016.9
20260506113830 57 178 1.0 1.0 0.00 0.00 0.00 50 1016.7
20260506113326 58 39 3.0 3.0 0.00 0.00 0.00 49 1016.9
20260506112823 58 39 3.0 3.0 0.00 0.00 0.00 49 1016.7
20260506112320 58 60 2.0 3.0 0.00 0.00 0.00 50 1017.0
20260506111818 58 74 2.0 3.0 0.00 0.00 0.00 50 1016.7
20260506111316 58 73 2.0 3.0 0.00 0.00 0.00 49 1016.7
20260506110813 58 13 3.0 4.0 0.00 0.00 0.00 49 1016.7
20260506110310 59 86 3.0 3.0 0.00 0.00 0.00 48 1016.8
20260506105806 59 53 2.0 3.0 0.00 0.00 0.00 48 1016.6
20260506105305 59 42 3.0 3.0 0.00 0.00 0.00 48 1016.5
20260506104801 59 59 2.0 2.0 0.00 0.00 0.00 48 1016.5
20260506104258 60 79 3.0 4.0 0.00 0.00 0.00 46 1016.5
20260506103756 60 65 3.0 4.0 0.00 0.00 0.00 45 1016.5
20260506103253 60 43 3.0 3.0 0.00 0.00 0.00 45 1016.5
20260506102750 61 34 3.0 3.0 0.00 0.00 0.00 43 1016.6
20260506102248 62 45 2.0 3.0 0.00 0.00 0.00 43 1016.4
20260506101745 62 10 4.0 4.0 0.00 0.00 0.00 43 1016.4
20260506101241 61 8 3.0 4.0 0.00 0.00 0.00 43 1016.6
20260506100740 61 358 3.0 4.0 0.00 0.00 0.00 43 1016.2
20260506100237 61 13 3.0 4.0 0.00 0.00 0.00 44 1016.2
20260506095736 61 8 3.0 4.0 0.00 0.00 0.00 43 1016.3
20260506095232 61 13 3.0 3.0 0.00 0.00 0.00 44 1016.2
20260506094729 61 11 3.0 4.0 0.00 0.00 0.00 44 1016.3
20260506094227 60 15 3.0 4.0 0.00 0.00 0.00 44 1016.3
20260506093726 60 24 3.0 4.0 0.00 0.00 0.00 45 1016.5
20260506093222 60 45 4.0 5.0 0.00 0.00 0.00 45 1016.5
20260506092720 60 30 4.0 5.0 0.00 0.00 0.00 45 1016.4
20260506092218 60 29 3.0 3.0 0.00 0.00 0.00 47 1016.2
20260506091715 60 43 2.0 3.0 0.00 0.00 0.00 48 1016.3
20260506091212 60 18 2.0 4.0 0.00 0.00 0.00 49 1016.3
20260506090710 61 7 4.0 5.0 0.00 0.00 0.00 48 1016.4
20260506090206 61 18 3.0 4.0 0.00 0.00 0.00 46 1016.3
20260506085704 61 17 5.0 5.0 0.00 0.00 0.00 45 1016.2
20260506085159 61 25 4.0 5.0 0.00 0.00 0.00 45 1016.2
20260506084657 61 20 3.0 4.0 0.00 0.00 0.00 46 1016.1
20260506084153 61 40 2.0 3.0 0.00 0.00 0.00 44 1016.0
20260506083650 61 28 2.0 3.0 0.00 0.00 0.00 45 1016.1
20260506083148 61 24 2.0 4.0 0.00 0.00 0.00 45 1015.9
20260506082644 61 10 2.0 2.0 0.00 0.00 0.00 43 1016.1
20260506082139 62 32 0.0 2.0 0.00 0.00 0.00 43 1016.0
20260506081638 63 30 2.0 3.0 0.00 0.00 0.00 42 1016.0
20260506081135 62 16 3.0 4.0 0.00 0.00 0.00 46 1016.1
20260506080633 62 4 3.0 4.0 0.00 0.00 0.00 44 1016.0
20260506080129 64 18 2.0 3.0 0.00 0.00 0.00 42 1016.1
20260506073113 64 44 5.0 6.0 0.00 0.00 0.00 40 1016.0
20260506072609 64 23 3.0 5.0 0.00 0.00 0.00 41 1015.8
20260506072108 64 26 5.0 5.0 0.00 0.00 0.00 40 1016.1
20260506071605 65 312 2.0 2.0 0.00 0.00 0.00 39 1015.9
20260506071103 65 7 1.0 2.0 0.00 0.00 0.00 39 1016.1
20260506070600 65 262 1.0 2.0 0.00 0.00 0.00 39 1016.0
20260506062034 67 272 5.0 6.0 0.00 0.00 0.00 37 1015.8
20260506061529 67 262 3.0 5.0 0.00 0.00 0.00 36 1015.7
20260506061027 67 262 2.0 6.0 0.00 0.00 0.00 36 1015.8
20260506060526 67 224 3.0 7.0 0.00 0.00 0.00 36 1015.7
20260506050954 68 275 4.0 6.0 0.00 0.00 0.00 34 1015.5
20260506050452 68 247 4.0 4.0 0.00 0.00 0.00 34 1015.1
20260506044942 68 256 3.0 5.0 0.00 0.00 0.00 33 1014.9
20260506044441 68 252 5.0 7.0 0.00 0.00 0.00 33 1015.0
20260506043937 69 257 6.0 8.0 0.00 0.00 0.00 33 1014.9
20260506043434 69 251 3.0 8.0 0.00 0.00 0.00 33 1014.9
20260506042932 69 256 3.0 12.0 0.00 0.00 0.00 33 1015.2
20260506042431 69 244 7.0 9.0 0.00 0.00 0.00 32 1014.8
20260506041929 69 262 2.0 7.0 0.00 0.00 0.00 32 1014.7
20260506041427 69 257 6.0 9.0 0.00 0.00 0.00 32 1014.9
20260506040923 69 260 5.0 10.0 0.00 0.00 0.00 32 1014.5